Powrót do katalogu

COSMOS 2534

GLONASS

AktywnyNawigacjaMEO
NORAD 44299·PAYLOAD·🇷🇺 Russia

Wystrzelony May 27, 2019 z Plesetsk Cosmodrome

Loading…

Następne Przeloty (najbliższe 24 godziny)

TLE

ŚwieżeSource: CelesTrak SupGP

Epoka: Sep 13, 2026, 23:59 UTC

1 44299C 19030A   26256.99979167  .00000000  00000+0  00000+0 0  2563
2 44299  64.3695 189.6285 0011542 276.4502 316.7894  2.13102256    12

Śledź COSMOS 2534 w czasie rzeczywistym z AllMySat

Download on the App Store